Language: 


Des rapports , des résumés tant et plus, au choix de chacun....


Données Historiques de Météogheer
 
Journalier Rapport pour Mai 24, 2018 Unitée:  Impériale    Métrique   Les deux
Suivant Jour »
Journalier Hebdomadaire Mensuel Annuel Sur mesure
  Actuel: Max: Min: Moyenne:
Température: 75.2 °F 81.7 °F 58.3 °F 65.7 °F
Point de rosée: 57.2 °F 62.6 °F 55.4 °F 58.5 °F
Humidité: 52% 95% 48% 80%
Vent: 0mph 7.2mph 0mph 1.6mph
Rafales: 6mph 8.7mph - -
VentCalm - - SE
Pression: 30 in 30.1 in 30 in -
Pluie: 0.21 in      
Historical Graphs
 
 
Données tabulaires pour Mai 24, 2018
Heure Température Point de rosée Pression Vent Vent Rafales Humidité Pluie Taux (Horaire) Conditions
00:00 59 °F 57.2 °F 30.1 in Calm   2 mph 91% 0 in
00:10 59 °F 57.2 °F 30.1 in Calm     91% 0 in
00:19 59 °F 57.2 °F 30.1 in Calm     91% 0 in
00:24 59 °F 57.2 °F 30.1 in Calm   2.7 mph 91% 0 in
00:30 59 °F 57.2 °F 30.1 in Calm   3.1 mph 91% 0 in
00:39 59.2 °F 57.2 °F 30.1 in East 0.9 mph 5.8 mph 92% 0 in
00:44 59.5 °F 57.2 °F 30.1 in ESE 5.6 mph 7.6 mph 94% 0.01 in
00:50 59.5 °F 57.2 °F 30.1 in East 6 mph 8.7 mph 94% 0.05 in
00:59 59.4 °F 57.2 °F 30.1 in East 4.9 mph 8.5 mph 94% 0.11 in
01:04 59.4 °F 57.2 °F 30.1 in ENE 1.6 mph 6.9 mph 94% 0.11 in
01:09 59.4 °F 57.2 °F 30.1 in Calm   4.9 mph 94% 0.12 in
01:19 59.4 °F 57.2 °F 30.1 in NE 0.9 mph 2.9 mph 94% 0.12 in
01:24 59.4 °F 57.2 °F 30.1 in Calm   4 mph 94% 0.13 in
01:30 58.6 °F 55.4 °F 30.1 in Calm   4 mph 92% 0.15 in
01:39 58.6 °F 55.4 °F 30.1 in Calm   0.9 mph 92% 0.17 in
01:44 58.6 °F 55.4 °F 30.1 in NE 1.6 mph 1.6 mph 92% 0.16 in
01:50 58.6 °F 55.4 °F 30.1 in NNE 1.1 mph 5.6 mph 92% 0.12 in
01:59 58.6 °F 55.4 °F 30.1 in Calm   4.7 mph 92% 0.07 in
02:04 58.6 °F 55.4 °F 30.1 in Calm   3.8 mph 92% 0.09 in
02:09 58.6 °F 55.4 °F 30.1 in North 2.7 mph 3.8 mph 92% 0.07 in
02:19 59.2 °F 57.2 °F 30.1 in North 2.9 mph 6 mph 92% 0.07 in
02:24 59.2 °F 57.2 °F 30.1 in North 2 mph 4.9 mph 92% 0.05 in
02:30 59.4 °F 57.2 °F 30.1 in North 2.7 mph 3.8 mph 94% 0.06 in
02:39 59.4 °F 57.2 °F 30.1 in Calm   3.1 mph 94% 0.04 in
02:44 59.5 °F 57.2 °F 30.1 in Calm   2.7 mph 94% 0.04 in
02:50 59.5 °F 57.2 °F 30.1 in North 2 mph 2.7 mph 94% 0.03 in
02:59 59.5 °F 57.2 °F 30.1 in Calm   2.9 mph 94% 0.03 in
03:04 59.5 °F 57.2 °F 30.1 in Calm   2.9 mph 94% 0.01 in
03:10 59.5 °F 57.2 °F 30.1 in North 3.8 mph 3.8 mph 94% 0.01 in
03:19 59.5 °F 57.2 °F 30.1 in Calm   3.8 mph 94% 0.01 in
03:30 59.4 °F 57.2 °F 30.1 in Calm   3.1 mph 94% 0 in
03:39 59.4 °F 57.2 °F 30.1 in Calm   3.4 mph 94% 0 in
03:44 59.4 °F 57.2 °F 30.1 in Calm   4.3 mph 94% 0 in
03:49 59.4 °F 57.2 °F 30.1 in Calm   4.3 mph 94% 0 in
03:59 59.4 °F 57.2 °F 30.1 in North 1.1 mph 2.5 mph 94% 0 in
04:04 59.2 °F 57.2 °F 30.1 in NNE 0.9 mph 1.3 mph 94% 0 in
04:10 59.2 °F 57.2 °F 30.1 in Calm   1.1 mph 94% 0 in
04:19 59 °F 57.2 °F 30.1 in NNE 3.6 mph 3.6 mph 94% 0 in
04:24 59.2 °F 57.2 °F 30.1 in Calm   3.6 mph 94% 0 in
04:30 59.2 °F 57.2 °F 30.1 in Calm   3.6 mph 94% 0 in
04:39 59.2 °F 57.2 °F 30.1 in Calm     94% 0 in
04:44 59.2 °F 57.2 °F 30.1 in NE 2.9 mph 2.9 mph 94% 0 in
04:50 59 °F 57.2 °F 30.1 in Calm   2.9 mph 94% 0 in
05:00 59 °F 57.2 °F 30.1 in North 2.5 mph 3.1 mph 94% 0 in
05:09 58.8 °F 57.2 °F 30.1 in NNE 2.9 mph 3.8 mph 95% 0 in
05:14 58.8 °F 57.2 °F 30.1 in North 1.3 mph 3.8 mph 95% 0 in
05:19 58.8 °F 57.2 °F 30.1 in North 2.5 mph 4 mph 95% 0 in
05:29 58.8 °F 57.2 °F 30.1 in NNE 2.5 mph 5.4 mph 95% 0 in
05:34 58.8 °F 57.2 °F 30.1 in North 3.4 mph 5.4 mph 95% 0 in
05:40 58.6 °F 57.2 °F 30.1 in Calm   4 mph 95% 0 in
05:49 58.5 °F 57.2 °F 30.1 in Calm   4 mph 95% 0 in
05:54 58.5 °F 57.2 °F 30.1 in Calm   3.8 mph 95% 0 in
06:00 58.5 °F 57.2 °F 30.1 in Calm   1.6 mph 95% 0 in
06:09 58.3 °F 57.2 °F 30.1 in Calm     95% 0 in
06:14 58.3 °F 57.2 °F 30.1 in Calm     95% 0 in
06:20 58.3 °F 57.2 °F 30.1 in Calm     95% 0 in
06:29 58.3 °F 57.2 °F 30.1 in Calm     95% 0 in
06:34 58.3 °F 57.2 °F 30.1 in Calm     95% 0 in
06:40 58.3 °F 57.2 °F 30.1 in Calm     95% 0 in
06:49 59.5 °F 59 °F 30.1 in Calm     95% 0 in
06:54 59.7 °F 59 °F 30.1 in Calm   0.9 mph 95% 0 in
07:00 59.9 °F 59 °F 30.1 in Calm   0.9 mph 95% 0 in
07:09 60.3 °F 59 °F 30.1 in Calm     95% 0 in
07:14 60.8 °F 59 °F 30.1 in Calm   1.1 mph 95% 0 in
07:19 60.8 °F 59 °F 30.1 in Calm   3.4 mph 95% 0 in
07:29 62.1 °F 60.8 °F 30.1 in Calm   3.6 mph 95% 0 in
07:39 62.4 °F 60.8 °F 30.1 in North 5.4 mph 5.8 mph 94% 0 in
07:44 62.2 °F 60.8 °F 30.1 in Calm   5.8 mph 94% 0 in
07:49 62.4 °F 60.8 °F 30.1 in North 2.7 mph 5.6 mph 94% 0 in
07:59 62.6 °F 60.8 °F 30 in Calm   4.7 mph 92% 0 in
08:04 62.8 °F 60.8 °F 30 in NNE 4.9 mph 5.4 mph 92% 0 in
08:09 62.6 °F 60.8 °F 30 in NE 3.4 mph 5.8 mph 91% 0 in
08:19 63.1 °F 60.8 °F 30 in NNE 4.3 mph 7.4 mph 91% 0 in
08:29 63.3 °F 59 °F 30.1 in NE 5.4 mph 7.6 mph 88% 0 in
08:39 63.5 °F 59 °F 30 in NNE 5.8 mph 7.8 mph 86% 0 in
08:44 64 °F 59 °F 30 in NNE 7.2 mph 7.8 mph 86% 0 in
08:50 64 °F 59 °F 30 in NNE 5.6 mph 7.8 mph 83% 0 in
08:59 63.7 °F 59 °F 30.1 in NNE 6.5 mph 6.5 mph 82% 0 in
09:04 63.5 °F 59 °F 30.1 in NE 4.3 mph 6.5 mph 82% 0 in
09:09 63.5 °F 59 °F 30 in NE 2.7 mph 6.3 mph 82% 0 in
09:19 64 °F 59 °F 30 in NNE 2.7 mph 5.4 mph 82% 0 in
09:24 64.8 °F 59 °F 30 in NE 5.8 mph 6.5 mph 81% 0 in
09:29 65.3 °F 59 °F 30 in NNE 7.2 mph 7.4 mph 81% 0 in
09:39 65.8 °F 59 °F 30 in NNE 3.4 mph 7.2 mph 79% 0 in
09:44 65.8 °F 59 °F 30 in NNE 4.3 mph 6.3 mph 79% 0 in
09:49 66 °F 59 °F 30 in NE 4.9 mph 5.4 mph 79% 0 in
09:59 66.6 °F 59 °F 30 in North 4.3 mph 6.5 mph 76% 0 in
10:09 66.4 °F 59 °F 30 in Calm   6.5 mph 75% 0 in
10:19 66.9 °F 59 °F 30 in Calm   6.5 mph 76% 0 in
10:24 67.3 °F 59 °F 30.1 in Calm   5.8 mph 75% 0 in
10:30 67.6 °F 59 °F 30.1 in Calm   5.8 mph 75% 0 in
10:39 68.4 °F 59 °F 30 in East 3.8 mph 5.6 mph 72% 0 in
10:44 68.5 °F 59 °F 30 in NNE 2 mph 6.5 mph 70% 0 in
10:49 68.7 °F 59 °F 30 in NE 3.1 mph 6.5 mph 71% 0 in
10:59 70 °F 59 °F 30 in NNE 3.4 mph 5.8 mph 70% 0 in
11:04 70.5 °F 59 °F 30 in Calm   5.8 mph 69% 0 in
11:09 70.9 °F 59 °F 30 in NE 2.9 mph 4.3 mph 66% 0 in
11:19 71.1 °F 59 °F 30 in Calm   5.8 mph 66% 0 in
11:24 71.6 °F 59 °F 30 in Calm   2.2 mph 66% 0 in
11:30 72.1 °F 60.8 °F 30 in Calm   2.5 mph 66% 0 in
11:39 73.6 °F 60.8 °F 30 in Calm   4 mph 66% 0 in
11:44 73.8 °F 62.6 °F 30 in Calm   2.9 mph 65% 0 in
11:50 73.8 °F 60.8 °F 30 in Calm   6.5 mph 62% 0 in
11:59 73.2 °F 59 °F 30 in ENE 4 mph 6.3 mph 62% 0 in
12:04 73.2 °F 59 °F 30 in NNE 2.9 mph 6.3 mph 61% 0 in
12:09 73.8 °F 60.8 °F 30 in ESE 0.9 mph 5.8 mph 62% 0 in
12:19 74.1 °F 59 °F 30 in NE 2.9 mph 5.6 mph 61% 0 in
12:29 75.9 °F 60.8 °F 30 in NNE 3.1 mph 6.3 mph 59% 0 in
12:39 76.6 °F 59 °F 30 in Calm   7.4 mph 56% 0 in
12:44 76.3 °F 59 °F 30 in NNE 1.6 mph 7.4 mph 56% 0 in
12:50 76.3 °F 60.8 °F 30 in Calm   4.3 mph 57% 0 in
12:59 77.2 °F 59 °F 30 in Calm   1.3 mph 55% 0 in
13:04 77.9 °F 60.8 °F 30 in Calm   1.1 mph 56% 0 in
13:09 77.9 °F 59 °F 30 in Calm   1.1 mph 52% 0 in
13:19 77 °F 59 °F 30 in Calm   5.4 mph 54% 0 in
13:24 77.4 °F 60.8 °F 30 in Calm   5.4 mph 55% 0 in
13:29 77.2 °F 60.8 °F 30 in Calm   0.9 mph 56% 0 in
13:39 76.8 °F 59 °F 30 in Calm   2.9 mph 55% 0 in
13:44 76.8 °F 60.8 °F 30 in Calm   2.9 mph 56% 0 in
13:49 77 °F 60.8 °F 30 in NNW 2.9 mph 4.9 mph 56% 0 in
13:59 77.7 °F 60.8 °F 30 in WSW 2 mph 3.4 mph 55% 0 in
14:10 78.4 °F 62.6 °F 30 in Calm   5.4 mph 57% 0 in
14:19 78.8 °F 60.8 °F 30 in Calm   4.9 mph 54% 0 in
14:24 79.5 °F 60.8 °F 30 in Calm   3.6 mph 51% 0 in
14:29 81.7 °F 62.6 °F 30 in SE 3.6 mph 5.4 mph 52% 0 in
14:39 81.3 °F 60.8 °F 30 in Calm   7.6 mph 49% 0 in
14:44 81.3 °F 60.8 °F 30 in East 4 mph 5.8 mph 50% 0 in
14:49 80.8 °F 59 °F 30 in NE 2.9 mph 5.8 mph 48% 0 in
14:59 79.2 °F 59 °F 30 in East 3.8 mph 7.4 mph 49% 0 in
15:04 78.4 °F 57.2 °F 30 in Calm   5.6 mph 49% 0 in
15:09 77.9 °F 57.2 °F 30 in East 5.8 mph 6 mph 49% 0 in
15:19 77.2 °F 57.2 °F 30 in Calm   6 mph 51% 0 in
15:24 76.8 °F 57.2 °F 30 in East 1.6 mph 5.6 mph 51% 0 in
15:29 76.3 °F 57.2 °F 30 in ESE 4 mph 6 mph 52% 0 in
15:39 75.9 °F 57.2 °F 30 in Calm   3.1 mph 53% 0 in
15:44 75.6 °F 57.2 °F 30 in East 2.9 mph 3.1 mph 52% 0 in
15:49 75.2 °F 57.2 °F 30 in Calm   6 mph 52% 0 in
Données Historique de Météo Turbie

Mise a jour : 24/05/2018 15:50:13
Généré par Cumulus 1.9.4 (1099)